Regional Weather Roundup
Issued by NWS Little Rock, AR

Home | Current Version | Previous Version | Graphics & Text | Print | Product List | Glossary On
Versions: 1 2 3 4 5 6 7 8 9 10 11 12 13 14 15 16 17 18 19 20 21 22 23 24 25 26 27 28 29 30 31 32 33 34 35 36 37 38 39 40 41 42 43 44 45 46 47 48 49 50
000
ASUS44 KLZK 232005
RWRLZK

WEATHER ROUNDUP FOR ARKANSAS
NATIONAL WEATHER SERVICE LITTLE ROCK AR
300 PM CDT TUE AUG 23 2016

NOTE: "FAIR" INDICATES FEW OR NO CLOUDS BELOW 12,000 FEET WITH NO
SIGNIFICANT WEATHER AND/OR OBSTRUCTIONS TO VISIBILITY.

ARZ001-003-010-029-232100-
NORTHWEST ARKANSAS

CITY           SKY/WX    TMP DP  RH WIND       PRES   REMARKS
FAYETTEVILLE   CLOUDY    82  71  69 S15G23    30.14S HX  86
FORT SMITH     CLOUDY    89  68  49 SW14      30.10F HX  93
HARRISON       CLOUDY    84  71  65 S10       30.16F HX  89
BENTONVILLE    CLOUDY    82  68  61 S9G16     30.13F HX  85
ROGERS         CLOUDY    84  70  62 S14       30.13F HX  88
SILOAM SPGS    CLOUDY    82  64  54 S13       30.13F
HIGHFILL       PTSUNNY   84  71  65 S14       30.12F HX  89
SPRINGDALE     CLOUDY    82  72  69 S16       30.15F HX  87
$$

ARZ004-005-016-232100-
NORTH CENTRAL ARKANSAS

CITY           SKY/WX    TMP DP  RH WIND       PRES   REMARKS
BATESVILLE     PTSUNNY   88  75  66 SE9       30.15F HX  97
FLIPPIN        CLOUDY    86  70  58 S7G16     30.11F HX  90
MTN HOME       CLOUDY    84  74  71 S6        30.13F HX  91
$$

ARZ040-041-232100-
WEST CENTRAL ARKANSAS

CITY           SKY/WX    TMP DP  RH WIND       PRES   REMARKS
MENA           CLOUDY    88  73  62 S3        30.16F HX  96
MOUNT IDA      SUNNY     85  71  63 VRB6      30.14F HX  90
$$

ARZ009-017-025-026-028-232100-
NORTHEAST ARKANSAS

CITY           SKY/WX    TMP DP  RH WIND       PRES   REMARKS
CORNING          N/A     84  77  79 S12       30.17F HX  94
JONESBORO      MOSUNNY   86  73  65 S8        30.15F HX  93
NEWPORT        MOSUNNY   87  73  62 SW8       30.16F HX  94
WALNUT RIDGE   PTSUNNY   84  73  70 S9G16     30.15F HX  91
BLYTHEVILLE    PTSUNNY   82  75  79 S3        30.18F HX  89
NW BLYTHEVILLE PTSUNNY   82  77  83 SE6       30.17F HX  91
$$

ARZ022-023-033-042-044-232100-
CENTRAL ARKANSAS

CITY           SKY/WX    TMP DP  RH WIND       PRES   REMARKS
LITTLE ROCK    PTSUNNY   91  73  55 S8        30.15F HX  99
N LITTLE ROCK    N/A     88  74  62 SW6       30.13F HX  97
SEARCY         PTSUNNY   89  77  67 S9        30.17F HX 101
HOT SPRINGS    CLOUDY    89  72  56 S9        30.16F HX  96
RUSSELLVILLE   PTSUNNY   87  74  64 VRB7      30.13F HX  95
$$

ARZ036-232100-
EAST ARKANSAS

CITY           SKY/WX    TMP DP  RH WIND       PRES   REMARKS
WEST MEMPHIS   MOSUNNY   87  75  67 S9        30.16F HX  96
$$

ARZ050-053-066-070-073-232100-
SOUTHWEST ARKANSAS

CITY           SKY/WX    TMP DP  RH WIND       PRES   REMARKS
ARKADELPHIA    FAIR      89  76  65 W9        30.15F HX 100
CAMDEN         MOSUNNY   91  73  55 SW7       30.14F HX 100
TEXARKANA      MOSUNNY   89  74  60 S12G18    30.15F HX  98
EL DORADO      MOSUNNY   90  75  61 VRB7      30.16F HX 100
DE QUEEN       MOSUNNY   88  75  65 S6        30.11F HX  97
$$

ARZ056-057-069-232100-
SOUTHEAST ARKANSAS

CITY           SKY/WX    TMP DP  RH WIND       PRES   REMARKS
PINE BLUFF     MOSUNNY   89  74  60 VRB7      30.15F HX  98
STUTTGART      MOSUNNY   90  72  55 SW6       30.16F HX  96
MONTICELLO     MOSUNNY   93  73  52 SE5       30.16F HX 102

$$





USA.gov is the U.S. government's official web portal to all federal, state and local government web resources and services.